time, beta470, beta532, beta650
yyyy/mm/dd HH:MM:SS.fff, counts, counts, counts
2023/06/28 23:06:59.983, 83, 86, 58
2023/06/28 23:07:01.119, 82, 88, 59
2023/06/28 23:07:02.239, 84, 90, 63
2023/06/28 23:07:03.375, 82, 90, 62
2023/06/28 23:07:04.495, 80, 87, 62
2023/06/28 23:07:05.631, 83, 90, 60
2023/06/28 23:07:06.751, 82, 89, 64
2023/06/28 23:07:07.887, 83, 88, 63
2023/06/28 23:07:09.022, 84, 88, 57
2023/06/28 23:07:10.142, 85, 86, 62
2023/06/28 23:07:11.278, 82, 88, 58
2023/06/28 23:07:12.398, 81, 87, 62
2023/06/28 23:07:13.534, 84, 88, 63
2023/06/28 23:07:14.654, 81, 89, 61
2023/06/28 23:07:15.790, 84, 88, 63
2023/06/28 23:07:16.910, 82, 216, 63
2023/06/28 23:07:18.046, 85, 134, 66
2023/06/28 23:07:19.165, 85, 87, 63
2023/06/28 23:07:20.302, 82, 89, 64
2023/06/28 23:07:21.422, 82, 88, 62
2023/06/28 23:07:22.558, 83, 87, 63
2023/06/28 23:07:23.677, 81, 88, 62
2023/06/28 23:07:24.814, 81, 88, 58
2023/06/28 23:07:25.933, 80, 89, 58
2023/06/28 23:07:27.069, 85, 87, 59
2023/06/28 23:07:28.189, 82, 88, 59
2023/06/28 23:07:29.325, 86, 88, 61
2023/06/28 23:07:30.445, 83, 84, 60
2023/06/28 23:07:31.581, 84, 87, 59
2023/06/28 23:07:32.701, 82, 90, 59
2023/06/28 23:07:33.837, 82, 86, 60
2023/06/28 23:07:34.957, 81, 87, 62
2023/06/28 23:07:36.093, 81, 88, 59
2023/06/28 23:07:37.228, 86, 88, 62
2023/06/28 23:07:38.349, 83, 88, 59
2023/06/28 23:07:39.485, 79, 88, 62
2023/06/28 23:07:40.605, 84, 90, 59
2023/06/28 23:07:41.740, 84, 88, 62
2023/06/28 23:07:42.860, 81, 89, 62
2023/06/28 23:07:43.996, 84, 88, 61
2023/06/28 23:07:45.116, 82, 86, 62
2023/06/28 23:07:46.252, 81, 86, 64
2023/06/28 23:07:47.372, 85, 86, 62
2023/06/28 23:07:48.508, 84, 88, 61
2023/06/28 23:07:49.629, 87, 88, 62
2023/06/28 23:07:50.764, 83, 88, 62
2023/06/28 23:07:51.884, 79, 88, 61
2023/06/28 23:07:53.019, 81, 86, 62
2023/06/28 23:07:54.140, 81, 88, 60
2023/06/28 23:07:55.276, 83, 85, 62
2023/06/28 23:07:56.396, 84, 87, 60
2023/06/28 23:07:57.532, 84, 85, 61
2023/06/28 23:07:58.652, 81, 87, 57
2023/06/28 23:07:59.787, 83, 90, 61
2023/06/28 23:08:00.907, 78, 87, 62
2023/06/28 23:08:02.043, 84, 88, 64
2023/06/28 23:08:03.179, 81, 87, 60
2023/06/28 23:08:04.299, 82, 87, 58
2023/06/28 23:08:05.435, 82, 86, 60
2023/06/28 23:08:06.555, 83, 87, 62
2023/06/28 23:08:07.691, 83, 91, 58
2023/06/28 23:08:08.811, 80, 88, 60
2023/06/28 23:08:09.947, 83, 88, 59
2023/06/28 23:08:11.067, 83, 85, 58
2023/06/28 23:08:12.203, 84, 87, 59
2023/06/28 23:08:13.323, 81, 88, 62
2023/06/28 23:08:14.459, 81, 85, 63
2023/06/28 23:08:15.578, 84, 89, 65
2023/06/28 23:08:16.714, 83, 84, 62
2023/06/28 23:08:17.834, 80, 88, 61
2023/06/28 23:08:18.970, 81, 88, 61
2023/06/28 23:08:20.090, 82, 87, 59
2023/06/28 23:08:21.226, 80, 88, 62
2023/06/28 23:08:22.346, 81, 86, 63
2023/06/28 23:08:23.482, 83, 85, 61
2023/06/28 23:08:24.602, 80, 88, 61
2023/06/28 23:08:25.738, 80, 89, 62
2023/06/28 23:08:26.858, 82, 85, 63
2023/06/28 23:08:27.994, 83, 87, 63
2023/06/28 23:08:29.114, 84, 88, 60
2023/06/28 23:08:30.250, 85, 89, 60
2023/06/28 23:08:31.370, 83, 89, 57
2023/06/28 23:08:32.506, 82, 86, 59
2023/06/28 23:08:33.625, 83, 86, 61
2023/06/28 23:08:34.761, 82, 86, 60
2023/06/28 23:08:35.881, 82, 85, 59
2023/06/28 23:08:37.017, 83, 87, 62
2023/06/28 23:08:38.153, 84, 87, 61
2023/06/28 23:08:39.273, 84, 87, 61
2023/06/28 23:08:40.408, 82, 88, 60
2023/06/28 23:08:41.529, 81, 87, 56
2023/06/28 23:08:42.665, 82, 87, 60
2023/06/28 23:08:43.785, 83, 85, 61
2023/06/28 23:08:44.920, 82, 88, 60
2023/06/28 23:08:46.041, 84, 85, 62
2023/06/28 23:08:47.177, 84, 85, 62
2023/06/28 23:08:48.297, 82, 88, 61
2023/06/28 23:08:49.432, 83, 89, 64
2023/06/28 23:08:50.552, 82, 88, 60
2023/06/28 23:08:51.688, 83, 88, 62
2023/06/28 23:08:52.808, 84, 86, 59
2023/06/28 23:08:53.944, 81, 86, 59
2023/06/28 23:08:55.064, 83, 90, 62
2023/06/28 23:08:56.199, 85, 85, 61
2023/06/28 23:08:57.320, 81, 87, 61
2023/06/28 23:08:58.456, 83, 86, 58
2023/06/28 23:08:59.576, 84, 88, 61
2023/06/28 23:09:00.712, 83, 86, 60
2023/06/28 23:09:01.832, 83, 86, 60
2023/06/28 23:09:02.967, 81, 86, 59
2023/06/28 23:09:04.104, 83, 87, 60
2023/06/28 23:09:05.224, 84, 86, 61
2023/06/28 23:09:06.360, 83, 89, 63
2023/06/28 23:09:07.479, 84, 88, 60
2023/06/28 23:09:08.616, 84, 89, 60
2023/06/28 23:09:09.735, 83, 87, 60
2023/06/28 23:09:10.871, 81, 90, 60
2023/06/28 23:09:11.991, 80, 89, 63
2023/06/28 23:09:13.127, 79, 84, 63
2023/06/28 23:09:14.247, 81, 88, 60
2023/06/28 23:09:15.383, 78, 88, 59
2023/06/28 23:09:16.503, 82, 88, 61
2023/06/28 23:09:17.639, 85, 89, 64
2023/06/28 23:09:18.758, 83, 88, 64
2023/06/28 23:09:19.895, 80, 87, 62
2023/06/28 23:09:21.015, 82, 86, 60
2023/06/28 23:09:22.151, 81, 89, 59
2023/06/28 23:09:23.271, 84, 89, 62
2023/06/28 23:09:24.407, 81, 86, 60
2023/06/28 23:09:25.526, 85, 86, 62
2023/06/28 23:09:26.662, 80, 88, 63
2023/06/28 23:09:27.782, 81, 89, 60
2023/06/28 23:09:28.918, 82, 89, 58
2023/06/28 23:09:30.038, 82, 88, 58
2023/06/28 23:09:31.174, 80, 87, 60
2023/06/28 23:09:32.294, 86, 86, 62
2023/06/28 23:09:33.430, 82, 87, 58
2023/06/28 23:09:34.549, 80, 89, 61
2023/06/28 23:09:35.686, 83, 91, 61
2023/06/28 23:09:36.806, 83, 88, 63
2023/06/28 23:09:37.942, 82, 84, 61
2023/06/28 23:09:39.078, 80, 84, 60
2023/06/28 23:09:40.198, 82, 87, 63
2023/06/28 23:09:41.334, 82, 86, 60
2023/06/28 23:09:42.453, 82, 88, 61
2023/06/28 23:09:43.589, 83, 89, 58
2023/06/28 23:09:44.709, 82, 88, 59
2023/06/28 23:09:45.845, 83, 87, 59
2023/06/28 23:09:46.965, 81, 87, 61
2023/06/28 23:09:48.101, 80, 87, 60
2023/06/28 23:09:49.220, 81, 87, 60
2023/06/28 23:09:50.357, 81, 87, 63
2023/06/28 23:09:51.477, 83, 87, 60
2023/06/28 23:09:52.612, 82, 87, 64
2023/06/28 23:09:53.733, 81, 87, 59
2023/06/28 23:09:54.869, 83, 89, 61
2023/06/28 23:09:55.989, 83, 87, 60
2023/06/28 23:09:57.124, 84, 87, 58
2023/06/28 23:09:58.244, 84, 86, 60
2023/06/28 23:09:59.380, 80, 87, 58
2023/06/28 23:10:00.500, 81, 85, 59
2023/06/28 23:10:01.636, 81, 86, 62
2023/06/28 23:10:02.756, 80, 88, 62
2023/06/28 23:10:03.892, 81, 84, 60
2023/06/28 23:10:05.028, 82, 87, 58
2023/06/28 23:10:06.148, 84, 87, 62
2023/06/28 23:10:07.284, 82, 87, 61
2023/06/28 23:10:08.404, 83, 89, 62
2023/06/28 23:10:09.540, 83, 85, 58
2023/06/28 23:10:10.660, 84, 86, 60
2023/06/28 23:10:11.796, 83, 90, 63
2023/06/28 23:10:12.916, 83, 87, 64
2023/06/28 23:10:14.052, 84, 90, 60
2023/06/28 23:10:15.172, 88, 88, 63
2023/06/28 23:10:16.307, 85, 92, 65
2023/06/28 23:10:17.427, 84, 86, 63
2023/06/28 23:10:18.563, 82, 92, 59
2023/06/28 23:10:19.683, 83, 90, 66
2023/06/28 23:10:20.820, 84, 91, 60
2023/06/28 23:10:21.939, 84, 89, 61
2023/06/28 23:10:23.075, 85, 90, 62
2023/06/28 23:10:24.195, 87, 95, 62
2023/06/28 23:10:25.331, 85, 100, 63
2023/06/28 23:10:26.451, 86, 96, 67
2023/06/28 23:10:27.587, 86, 93, 69
2023/06/28 23:10:28.707, 89, 95, 69
2023/06/28 23:10:29.843, 86, 94, 63
2023/06/28 23:10:30.962, 88, 96, 65
2023/06/28 23:10:32.099, 87, 98, 65
2023/06/28 23:10:33.218, 87, 92, 61
2023/06/28 23:10:34.354, 88, 99, 61
2023/06/28 23:10:35.474, 86, 96, 66
2023/06/28 23:10:36.610, 90, 95, 62
2023/06/28 23:10:37.746, 89, 96, 68
2023/06/28 23:10:38.866, 86, 96, 62
2023/06/28 23:10:40.002, 103, 101, 64
2023/06/28 23:10:41.122, 89, 101, 63
2023/06/28 23:10:42.258, 89, 100, 64
2023/06/28 23:10:43.378, 89, 102, 64
2023/06/28 23:10:44.514, 91, 101, 64
2023/06/28 23:10:45.650, 89, 97, 66
2023/06/28 23:10:46.770, 91, 96, 64
2023/06/28 23:10:47.906, 94, 100, 66
2023/06/28 23:10:49.026, 89, 97, 65
2023/06/28 23:10:50.162, 91, 104, 66
2023/06/28 23:10:51.281, 89, 103, 64
2023/06/28 23:10:52.417, 91, 101, 66
2023/06/28 23:10:53.537, 88, 102, 71
2023/06/28 23:10:54.673, 91, 105, 67
2023/06/28 23:10:55.809, 93, 111, 65
2023/06/28 23:10:56.929, 90, 103, 61
2023/06/28 23:10:58.065, 90, 104, 125
2023/06/28 23:10:59.185, 92, 102, 64
2023/06/28 23:11:00.321, 93, 101, 68
2023/06/28 23:11:01.441, 93, 104, 68
2023/06/28 23:11:02.577, 91, 97, 66
2023/06/28 23:11:03.713, 89, 101, 70
2023/06/28 23:11:04.832, 94, 102, 69
2023/06/28 23:11:05.969, 91, 102, 69
2023/06/28 23:11:07.088, 92, 105, 73
2023/06/28 23:11:08.225, 89, 107, 67
2023/06/28 23:11:09.344, 92, 104, 72
2023/06/28 23:11:10.480, 90, 111, 66
2023/06/28 23:11:11.616, 90, 103, 67
2023/06/28 23:11:12.736, 90, 118, 68
2023/06/28 23:11:13.872, 89, 144, 68
2023/06/28 23:11:14.992, 94, 107, 71
2023/06/28 23:11:16.128, 93, 105, 76
2023/06/28 23:11:17.248, 94, 102, 79
2023/06/28 23:11:18.384, 96, 100, 72
2023/06/28 23:11:19.520, 93, 106, 69
2023/06/28 23:11:20.640, 89, 105, 71
2023/06/28 23:11:21.776, 94, 130, 70
2023/06/28 23:11:22.896, 91, 106, 73
2023/06/28 23:11:24.032, 91, 106, 70
2023/06/28 23:11:25.152, 91, 104, 68
2023/06/28 23:11:26.287, 94, 109, 72
2023/06/28 23:11:27.423, 92, 110, 72
2023/06/28 23:11:28.543, 92, 107, 70
2023/06/28 23:11:29.679, 111, 102, 72
2023/06/28 23:11:30.799, 94, 107, 71
2023/06/28 23:11:31.935, 93, 107, 68
2023/06/28 23:11:33.055, 93, 117, 70
2023/06/28 23:11:34.190, 89, 105, 72
2023/06/28 23:11:35.327, 96, 105, 67
2023/06/28 23:11:36.447, 95, 107, 70
2023/06/28 23:11:37.583, 94, 108, 71
2023/06/28 23:11:38.703, 93, 102, 71
2023/06/28 23:11:39.838, 101, 105, 72
2023/06/28 23:11:40.959, 91, 107, 71
2023/06/28 23:11:42.095, 94, 106, 70
2023/06/28 23:11:43.230, 91, 121, 73
2023/06/28 23:11:44.350, 91, 216, 67
2023/06/28 23:11:45.487, 94, 109, 70
2023/06/28 23:11:46.606, 95, 108, 72
2023/06/28 23:11:47.742, 92, 106, 68
2023/06/28 23:11:48.862, 98, 105, 71
2023/06/28 23:11:49.998, 93, 106, 75
2023/06/28 23:11:51.134, 96, 105, 68
2023/06/28 23:11:52.254, 92, 109, 72
2023/06/28 23:11:53.390, 95, 108, 72
2023/06/28 23:11:54.510, 92, 109, 68
2023/06/28 23:11:55.645, 97, 105, 69
2023/06/28 23:11:56.766, 95, 106, 70
2023/06/28 23:11:57.901, 98, 105, 69
2023/06/28 23:11:59.038, 97, 109, 73
2023/06/28 23:12:00.157, 100, 107, 66
2023/06/28 23:12:01.293, 93, 108, 68
2023/06/28 23:12:02.413, 96, 112, 70
2023/06/28 23:12:03.549, 93, 106, 67
2023/06/28 23:12:04.684, 92, 107, 70
2023/06/28 23:12:05.805, 95, 107, 72
2023/06/28 23:12:06.940, 94, 192, 73
2023/06/28 23:12:08.061, 94, 105, 74
2023/06/28 23:12:09.197, 97, 107, 71
2023/06/28 23:12:10.316, 97, 109, 71
2023/06/28 23:12:11.452, 96, 104, 74
2023/06/28 23:12:12.589, 95, 106, 71
2023/06/28 23:12:13.708, 95, 117, 74
2023/06/28 23:12:14.845, 100, 106, 74
2023/06/28 23:12:15.964, 95, 115, 71
2023/06/28 23:12:17.100, 95, 108, 74
2023/06/28 23:12:18.220, 95, 112, 71
2023/06/28 23:12:19.356, 98, 105, 74
2023/06/28 23:12:20.492, 95, 103, 73
2023/06/28 23:12:21.612, 93, 105, 71
2023/06/28 23:12:22.748, 97, 110, 72
2023/06/28 23:12:23.868, 95, 109, 73
2023/06/28 23:12:25.004, 100, 120, 73
2023/06/28 23:12:26.124, 94, 108, 73
2023/06/28 23:12:27.260, 93, 113, 75
2023/06/28 23:12:28.396, 94, 109, 70
2023/06/28 23:12:29.516, 97, 117, 70
2023/06/28 23:12:30.652, 94, 107, 73
2023/06/28 23:12:31.771, 96, 108, 74
2023/06/28 23:12:32.907, 97, 199, 70
2023/06/28 23:12:34.027, 97, 110, 72
2023/06/28 23:12:35.163, 97, 107, 72
2023/06/28 23:12:36.299, 95, 107, 71
2023/06/28 23:12:37.419, 100, 115, 74
2023/06/28 23:12:38.555, 94, 105, 68
2023/06/28 23:12:39.675, 99, 108, 89
2023/06/28 23:12:40.811, 97, 111, 71
2023/06/28 23:12:41.931, 96, 107, 74
2023/06/28 23:12:43.067, 95, 113, 76
2023/06/28 23:12:44.203, 95, 115, 69
2023/06/28 23:12:45.323, 96, 110, 87
2023/06/28 23:12:46.459, 97, 113, 72
2023/06/28 23:12:47.579, 103, 105, 70
2023/06/28 23:12:48.715, 99, 115, 74
2023/06/28 23:12:49.851, 93, 150, 71
2023/06/28 23:12:50.970, 97, 123, 71
2023/06/28 23:12:52.106, 97, 115, 74
2023/06/28 23:12:53.226, 97, 108, 70
2023/06/28 23:12:54.362, 103, 111, 71
2023/06/28 23:12:55.482, 95, 109, 79
2023/06/28 23:12:56.618, 93, 103, 69
2023/06/28 23:12:57.754, 96, 109, 82
2023/06/28 23:12:58.874, 94, 108, 72
2023/06/28 23:13:00.010, 97, 133, 70
2023/06/28 23:13:01.130, 116, 120, 72
2023/06/28 23:13:02.266, 97, 114, 73
2023/06/28 23:13:03.402, 95, 107, 77
2023/06/28 23:13:04.522, 95, 117, 74
2023/06/28 23:13:05.658, 92, 115, 79
2023/06/28 23:13:06.778, 96, 142, 73
2023/06/28 23:13:07.914, 99, 109, 71
2023/06/28 23:13:09.033, 93, 153, 102
2023/06/28 23:13:10.169, 100, 112, 71
2023/06/28 23:13:11.305, 96, 109, 72
2023/06/28 23:13:12.425, 98, 109, 71
2023/06/28 23:13:13.561, 102, 116, 71
2023/06/28 23:13:14.681, 104, 111, 85
2023/06/28 23:13:15.817, 98, 116, 73
2023/06/28 23:13:16.953, 96, 117, 73
2023/06/28 23:13:18.073, 100, 115, 70
2023/06/28 23:13:19.209, 98, 116, 84
2023/06/28 23:13:20.329, 94, 113, 73
2023/06/28 23:13:21.464, 99, 126, 100
2023/06/28 23:13:22.601, 98, 111, 72
2023/06/28 23:13:23.720, 98, 111, 70
2023/06/28 23:13:24.857, 95, 108, 76
2023/06/28 23:13:25.976, 99, 127, 75
2023/06/28 23:13:27.112, 106, 114, 69
2023/06/28 23:13:28.232, 97, 107, 73
2023/06/28 23:13:29.368, 94, 118, 75
2023/06/28 23:13:30.504, 94, 117, 72
2023/06/28 23:13:31.624, 98, 114, 72
2023/06/28 23:13:32.760, 97, 114, 82
2023/06/28 23:13:33.880, 97, 112, 75
2023/06/28 23:13:35.016, 94, 105, 71
2023/06/28 23:13:36.136, 104, 112, 74
2023/06/28 23:13:37.272, 117, 112, 92
2023/06/28 23:13:38.408, 98, 113, 69
2023/06/28 23:13:39.528, 99, 117, 70
2023/06/28 23:13:40.664, 97, 112, 73
2023/06/28 23:13:41.783, 95, 354, 109
2023/06/28 23:13:42.919, 94, 111, 73
2023/06/28 23:13:44.055, 96, 121, 74
2023/06/28 23:13:45.175, 98, 111, 72
2023/06/28 23:13:46.311, 102, 111, 73
2023/06/28 23:13:47.431, 97, 110, 73
2023/06/28 23:13:48.567, 94, 113, 74
2023/06/28 23:13:49.687, 95, 109, 74
2023/06/28 23:13:50.823, 93, 117, 87
2023/06/28 23:13:51.958, 105, 109, 77
2023/06/28 23:13:53.079, 98, 111, 71
2023/06/28 23:13:54.215, 94, 108, 72
2023/06/28 23:13:55.335, 97, 111, 72
2023/06/28 23:13:56.470, 95, 117, 84
2023/06/28 23:13:57.607, 97, 112, 72
2023/06/28 23:13:58.727, 96, 108, 70
2023/06/28 23:13:59.862, 95, 109, 70
2023/06/28 23:14:00.982, 93, 112, 72
2023/06/28 23:14:02.118, 95, 111, 67
2023/06/28 23:14:03.238, 94, 113, 72
2023/06/28 23:14:04.374, 95, 117, 70
2023/06/28 23:14:05.510, 94, 110, 73
2023/06/28 23:14:06.630, 113, 114, 73
2023/06/28 23:14:07.766, 95, 118, 72
2023/06/28 23:14:08.886, 94, 111, 81
2023/06/28 23:14:10.022, 96, 108, 70
2023/06/28 23:14:11.142, 96, 111, 72
2023/06/28 23:14:12.278, 93, 110, 73
2023/06/28 23:14:13.413, 93, 108, 70
2023/06/28 23:14:14.534, 94, 112, 71
2023/06/28 23:14:15.669, 97, 107, 73
2023/06/28 23:14:16.789, 98, 116, 73
2023/06/28 23:14:17.925, 97, 109, 70
2023/06/28 23:14:19.061, 100, 117, 67
2023/06/28 23:14:20.180, 102, 111, 78
2023/06/28 23:14:21.317, 98, 106, 73
2023/06/28 23:14:22.436, 99, 105, 80
2023/06/28 23:14:23.573, 93, 113, 75
2023/06/28 23:14:24.693, 109, 109, 78
2023/06/28 23:14:25.829, 96, 110, 75
2023/06/28 23:14:26.949, 97, 109, 73
2023/06/28 23:14:28.085, 102, 113, 76
2023/06/28 23:14:29.221, 97, 110, 436
2023/06/28 23:14:30.341, 103, 281, 180
2023/06/28 23:14:31.477, 95, 111, 70
2023/06/28 23:14:32.597, 96, 109, 68
2023/06/28 23:14:33.732, 95, 111, 74
2023/06/28 23:14:34.852, 129, 111, 76
2023/06/28 23:14:35.988, 97, 118, 74
2023/06/28 23:14:37.124, 96, 113, 71
2023/06/28 23:14:38.244, 96, 115, 71
2023/06/28 23:14:39.380, 99, 110, 84
2023/06/28 23:14:40.500, 97, 111, 70
2023/06/28 23:14:41.636, 99, 110, 71
2023/06/28 23:14:42.756, 93, 113, 70
2023/06/28 23:14:43.892, 98, 114, 72
2023/06/28 23:14:45.012, 98, 113, 72
2023/06/28 23:14:46.148, 94, 109, 72
2023/06/28 23:14:47.268, 97, 122, 74
2023/06/28 23:14:48.404, 92, 139, 94
2023/06/28 23:14:49.540, 96, 115, 71
2023/06/28 23:14:50.659, 94, 114, 70
2023/06/28 23:14:51.795, 97, 108, 77
2023/06/28 23:14:52.915, 99, 109, 68
2023/06/28 23:14:54.051, 97, 115, 69
2023/06/28 23:14:55.171, 94, 114, 77
2023/06/28 23:14:56.308, 96, 112, 72
2023/06/28 23:14:57.427, 93, 107, 71
2023/06/28 23:14:58.563, 95, 110, 73
2023/06/28 23:14:59.698, 98, 111, 73
2023/06/28 23:15:00.819, 94, 112, 68
2023/06/28 23:15:01.955, 94, 109, 71
2023/06/28 23:15:03.075, 96, 115, 74
2023/06/28 23:15:04.211, 99, 112, 73
2023/06/28 23:15:05.331, 96, 110, 68
2023/06/28 23:15:06.467, 95, 112, 68
2023/06/28 23:15:07.587, 97, 113, 75
2023/06/28 23:15:08.722, 95, 111, 80
2023/06/28 23:15:09.842, 98, 118, 70
2023/06/28 23:15:10.978, 100, 115, 72
2023/06/28 23:15:12.114, 97, 117, 75
2023/06/28 23:15:13.234, 96, 110, 75
2023/06/28 23:15:14.370, 97, 109, 76
2023/06/28 23:15:15.490, 100, 104, 68
2023/06/28 23:15:16.626, 98, 125, 69
2023/06/28 23:15:17.746, 98, 126, 124
2023/06/28 23:15:18.882, 97, 114, 70
2023/06/28 23:15:20.002, 96, 109, 69
2023/06/28 23:15:21.138, 103, 110, 73
2023/06/28 23:15:22.274, 95, 124, 69
2023/06/28 23:15:23.393, 103, 129, 72
2023/06/28 23:15:24.529, 94, 133, 71
2023/06/28 23:15:25.649, 96, 111, 76
2023/06/28 23:15:26.786, 93, 116, 74
2023/06/28 23:15:27.905, 94, 110, 73
2023/06/28 23:15:29.041, 97, 126, 73
2023/06/28 23:15:30.161, 105, 111, 78
2023/06/28 23:15:31.297, 95, 108, 73
2023/06/28 23:15:32.433, 99, 115, 76
2023/06/28 23:15:33.553, 96, 108, 70
2023/06/28 23:15:34.689, 96, 114, 70
2023/06/28 23:15:35.809, 95, 104, 72
2023/06/28 23:15:36.945, 95, 110, 71
2023/06/28 23:15:38.065, 106, 110, 71
2023/06/28 23:15:39.201, 95, 112, 71
2023/06/28 23:15:40.337, 95, 125, 75
2023/06/28 23:15:41.456, 99, 107, 73
2023/06/28 23:15:42.592, 95, 109, 71
2023/06/28 23:15:43.712, 97, 113, 72
2023/06/28 23:15:44.848, 96, 120, 74
2023/06/28 23:15:45.968, 95, 116, 74
2023/06/28 23:15:47.104, 96, 110, 71
2023/06/28 23:15:48.224, 98, 119, 71
2023/06/28 23:15:49.360, 100, 108, 72
2023/06/28 23:15:50.495, 98, 119, 77
2023/06/28 23:15:51.616, 101, 123, 69
2023/06/28 23:15:52.752, 97, 113, 79
2023/06/28 23:15:53.872, 93, 110, 73
2023/06/28 23:15:55.007, 102, 113, 73
2023/06/28 23:15:56.127, 99, 107, 87
2023/06/28 23:15:57.263, 124, 116, 72
2023/06/28 23:15:58.400, 93, 111, 74
2023/06/28 23:15:59.519, 97, 109, 73
2023/06/28 23:16:00.656, 98, 107, 89
2023/06/28 23:16:01.775, 97, 114, 76
2023/06/28 23:16:02.911, 95, 114, 73
2023/06/28 23:16:04.030, 96, 111, 69
2023/06/28 23:16:05.167, 99, 112, 75
2023/06/28 23:16:06.303, 102, 113, 71
2023/06/28 23:16:07.423, 101, 112, 70
2023/06/28 23:16:08.559, 109, 111, 74
2023/06/28 23:16:09.678, 95, 123, 70
2023/06/28 23:16:10.815, 97, 108, 73
2023/06/28 23:16:11.951, 108, 108, 71
2023/06/28 23:16:13.070, 100, 115, 73
2023/06/28 23:16:14.207, 95, 118, 81
2023/06/28 23:16:15.326, 94, 122, 75
2023/06/28 23:16:16.462, 95, 108, 74
2023/06/28 23:16:17.582, 97, 113, 76
2023/06/28 23:16:18.718, 95, 111, 72
2023/06/28 23:16:19.838, 98, 107, 71
2023/06/28 23:16:20.974, 100, 114, 73
2023/06/28 23:16:22.110, 96, 117, 71
2023/06/28 23:16:23.230, 98, 145, 78
2023/06/28 23:16:24.366, 100, 107, 73
2023/06/28 23:16:25.486, 96, 111, 73
2023/06/28 23:16:26.622, 95, 119, 71
2023/06/28 23:16:27.742, 97, 110, 71
2023/06/28 23:16:28.878, 98, 109, 73
2023/06/28 23:16:29.998, 97, 110, 75
2023/06/28 23:16:31.133, 111, 108, 76
2023/06/28 23:16:32.270, 99, 114, 67
2023/06/28 23:16:33.390, 96, 109, 73
2023/06/28 23:16:34.525, 100, 114, 73
2023/06/28 23:16:35.645, 104, 110, 72
2023/06/28 23:16:36.781, 99, 116, 68
2023/06/28 23:16:37.901, 96, 117, 70
2023/06/28 23:16:39.037, 100, 111, 74
2023/06/28 23:16:40.173, 96, 114, 70
2023/06/28 23:16:41.293, 99, 118, 75
2023/06/28 23:16:42.428, 100, 111, 75
2023/06/28 23:16:43.549, 101, 113, 71
2023/06/28 23:16:44.685, 97, 114, 69
2023/06/28 23:16:45.805, 98, 113, 70
2023/06/28 23:16:46.940, 99, 130, 71
2023/06/28 23:16:48.077, 108, 112, 70
2023/06/28 23:16:49.196, 96, 105, 73
2023/06/28 23:16:50.332, 98, 121, 76
2023/06/28 23:16:51.452, 96, 112, 72
2023/06/28 23:16:52.588, 96, 108, 72
2023/06/28 23:16:53.708, 97, 114, 73
2023/06/28 23:16:54.844, 100, 111, 73
2023/06/28 23:16:55.980, 103, 117, 76
2023/06/28 23:16:57.100, 98, 109, 70
2023/06/28 23:16:58.236, 95, 112, 76
2023/06/28 23:16:59.355, 95, 129, 74
2023/06/28 23:17:00.492, 109, 112, 74
2023/06/28 23:17:01.612, 97, 147, 70
2023/06/28 23:17:02.748, 95, 115, 76
2023/06/28 23:17:03.883, 93, 117, 71
2023/06/28 23:17:05.003, 111, 112, 69
2023/06/28 23:17:06.140, 101, 116, 70
2023/06/28 23:17:07.259, 95, 112, 83
2023/06/28 23:17:08.395, 96, 113, 72
2023/06/28 23:17:09.515, 96, 110, 70
2023/06/28 23:17:10.651, 99, 108, 71
2023/06/28 23:17:11.787, 97, 112, 70
2023/06/28 23:17:12.907, 96, 132, 71
2023/06/28 23:17:14.042, 99, 108, 72
2023/06/28 23:17:15.163, 97, 110, 73
2023/06/28 23:17:16.299, 95, 110, 73
2023/06/28 23:17:17.419, 94, 115, 78
2023/06/28 23:17:18.555, 97, 110, 72
2023/06/28 23:17:19.675, 97, 109, 70
2023/06/28 23:17:20.810, 115, 111, 82
2023/06/28 23:17:21.947, 92, 115, 73
2023/06/28 23:17:23.066, 96, 111, 79
2023/06/28 23:17:24.202, 95, 109, 81
2023/06/28 23:17:25.322, 96, 112, 77
2023/06/28 23:17:26.458, 102, 112, 70
2023/06/28 23:17:27.578, 99, 112, 72
2023/06/28 23:17:28.714, 95, 111, 69
2023/06/28 23:17:29.834, 99, 109, 72
2023/06/28 23:17:30.970, 98, 106, 71
2023/06/28 23:17:32.106, 94, 111, 75
2023/06/28 23:17:33.226, 97, 111, 72
2023/06/28 23:17:34.362, 96, 114, 70
2023/06/28 23:17:35.482, 99, 108, 74
2023/06/28 23:17:36.618, 99, 114, 72
2023/06/28 23:17:37.738, 99, 123, 76
2023/06/28 23:17:38.874, 94, 112, 75
2023/06/28 23:17:39.994, 95, 114, 81
2023/06/28 23:17:41.129, 109, 107, 73
2023/06/28 23:17:42.265, 98, 149, 75
2023/06/28 23:17:43.385, 95, 107, 71
2023/06/28 23:17:44.521, 97, 113, 79
2023/06/28 23:17:45.641, 97, 109, 73
2023/06/28 23:17:46.777, 97, 108, 84
2023/06/28 23:17:47.897, 95, 112, 78
2023/06/28 23:17:49.033, 97, 113, 70
2023/06/28 23:17:50.169, 97, 111, 74
2023/06/28 23:17:51.289, 100, 115, 73
2023/06/28 23:17:52.424, 99, 115, 83
2023/06/28 23:17:53.545, 97, 112, 73
2023/06/28 23:17:54.681, 108, 116, 73
2023/06/28 23:17:55.801, 95, 113, 76
2023/06/28 23:17:56.936, 95, 113, 72
2023/06/28 23:17:58.073, 98, 113, 67
2023/06/28 23:17:59.192, 101, 136, 72
2023/06/28 23:18:00.328, 99, 109, 75
2023/06/28 23:18:01.448, 96, 112, 67
2023/06/28 23:18:02.584, 94, 109, 72
2023/06/28 23:18:03.704, 98, 113, 92
2023/06/28 23:18:04.840, 95, 112, 73
2023/06/28 23:18:05.960, 94, 140, 75
2023/06/28 23:18:07.096, 101, 108, 76
2023/06/28 23:18:08.232, 92, 164, 70
2023/06/28 23:18:09.351, 98, 109, 72
2023/06/28 23:18:10.488, 106, 107, 74
2023/06/28 23:18:11.608, 91, 107, 71
2023/06/28 23:18:12.744, 95, 112, 73
2023/06/28 23:18:13.863, 93, 113, 90
2023/06/28 23:18:14.000, 94, 115, 74
2023/06/28 23:18:16.135, 99, 112, 73
2023/06/28 23:18:17.255, 98, 110, 71
2023/06/28 23:18:18.391, 96, 112, 70
2023/06/28 23:18:19.511, 94, 110, 73
2023/06/28 23:18:20.647, 94, 113, 76
2023/06/28 23:18:21.767, 94, 106, 71
2023/06/28 23:18:22.903, 96, 122, 74
2023/06/28 23:18:24.023, 93, 113, 72
2023/06/28 23:18:25.159, 98, 126, 71
2023/06/28 23:18:26.295, 103, 116, 78
2023/06/28 23:18:27.414, 96, 199, 74
2023/06/28 23:18:28.551, 100, 114, 69
2023/06/28 23:18:29.670, 107, 113, 72
2023/06/28 23:18:30.807, 100, 107, 72
2023/06/28 23:18:31.926, 97, 110, 69
2023/06/28 23:18:33.063, 96, 120, 79
2023/06/28 23:18:34.198, 98, 108, 69
2023/06/28 23:18:35.318, 93, 108, 68
2023/06/28 23:18:36.454, 97, 111, 73
2023/06/28 23:18:37.574, 99, 124, 74
2023/06/28 23:18:38.710, 96, 109, 69
2023/06/28 23:18:39.830, 96, 107, 105
2023/06/28 23:18:40.966, 97, 122, 76
2023/06/28 23:18:42.086, 97, 110, 71
2023/06/28 23:18:43.222, 96, 116, 71
2023/06/28 23:18:44.358, 100, 111, 69
2023/06/28 23:18:45.478, 98, 115, 72
2023/06/28 23:18:46.614, 97, 110, 69
2023/06/28 23:18:47.733, 97, 111, 73
2023/06/28 23:18:48.869, 96, 113, 71
2023/06/28 23:18:49.989, 97, 108, 67
2023/06/28 23:18:51.125, 96, 113, 70
2023/06/28 23:18:52.261, 94, 111, 83